This demonstration page uses our WeatherBlox Daily Observations layout. Learn more.

Left ArrowRight Arrow

36.17497, -115.13722

Hourly Observations for October 27, 2016

Temp ( °F °C ) Dew Point ( °F °C ) Humidity (%) Winds ( mph kmh ) Pressure ( in mb ) Visibility ( mi km ) Precip ( " mm )
12:53 am 00:53 Clear 65 18.3 50 10 59 59 WNW 5 7 30.06 1018 10 16.0934 0 0
1:53 am 01:53 Clear 62 16.7 50 10 65 65 NW 5 7 30.05 1018 10 16.0934 0 0
2:53 am 02:53 Clear 61 16.1 51 10.6 70 70 NW 3 6 30.04 1017 10 16.0934 0 0
3:53 am 03:53 Clear 62 16.7 51 10.6 67 67 NNW 5 7 30.03 1017 10 16.0934 0 0
4:53 am 04:53 Clear 61 16.1 50 10 67 67 NNW 3 6 30.04 1017 10 16.0934 0 0
5:53 am 05:53 Clear 61 16.1 50 10 67 67 Calm 30.06 1018 10 16.0934 0 0
6:53 am 06:53 Clear 61 16.1 51 10.6 70 70 WNW 5 7 30.06 1018 10 16.0934 0 0
7:53 am 07:53 Sunny 62 16.7 51 10.6 67 67 NNW 3 6 30.07 1018 10 16.0934 0 0
8:53 am 08:53 Sunny 67 19.4 50 10 55 55 NW 3 6 30.09 1019 10 16.0934 0 0
9:53 am 09:53 Sunny 69 20.6 50 10 51 51 SSE 3 6 30.09 1019 10 16.0934 0 0
10:53 am 10:53 Sunny 72 22.2 50 10 46 46 SE 3 6 30.07 1018 10 16.0934 0 0
11:53 am 11:53 Sunny 74 23.3 49 9.4 41 41 SE 5 7 30.06 1018 10 16.0934 0 0
12:53 pm 12:53 Sunny 75 23.9 50 10 41 41 SE 6 9 30.03 1017 10 16.0934 0 0
1:53 pm 13:53 Sunny 77 25 50 10 39 39 SE 8 13 29.99 1016 10 16.0934 0 0
2:53 pm 14:53 Sunny 77 25 50 10 39 39 E 7 11 29.96 1015 10 16.0934 0 0
3:53 pm 15:53 Sunny 78 25.6 49 9.4 36 36 E 5 7 29.96 1014 10 16.0934 0 0
4:53 pm 16:53 Sunny 79 26.1 49 9.4 35 35 S 5 7 29.94 1014 10 16.0934 0 0
5:53 pm 17:53 Clear 77 25 49 9.4 37 37 S 3 6 29.95 1014 10 16.0934 0 0
6:53 pm 18:53 Clear 76 24.4 50 10 40 40 SSW 3 6 29.95 1014 10 16.0934 0 0
7:53 pm 19:53 Clear 74 23.3 51 10.6 45 45 Calm 29.96 1014 10 16.0934 0 0
8:53 pm 20:53 Clear 73 22.8 52 11.1 48 48 Calm 29.95 1014 10 16.0934 0 0
9:53 pm 21:53 Clear 71 21.7 54 12.2 55 55 Calm 29.95 1014 10 16.0934 0 0
10:53 pm 22:53 Clear 72 22.2 54 12.2 53 53 W 5 7 29.93 1014 10 16.0934 0 0
11:53 pm 23:53 Clear 71 21.7 53 11.7 53 53 WSW 3 6 29.93 1014 10 16.0934 0 0

Powered by AerisWeather